SCP
0 0 -0 -0 -1 -0 -0 -0 -0 -0 -0 -0 -0 -0 -0 -0 -0 -0 -0 -0 -0 -0 -0 -0 -0 -0 0 0 -0 -0 -0 0 0 0 0 0 0 0 0 0 0 0 0
-1 -0 -0 -0 -0 -0 -0 -0 -0 -0 -0 -0 -0 -0 -0 -0 -0 -0 -0 -0 -0 -0 -0 -0 -0 -0 -0 -0 -0 -0 -0 0 0 0 0 0 0 0 0 0 0 0 0
-0 -0 0 -0 -0 -0 -0 -0 0 0 -0 -0 -0 -0 -0 -0 -0 -0 -0 -0 -0 -0 -0 -0 -0 -0 -0 -0 -0 0 0 0 0 0 0 0 0 0 0 0 0 0 0
-0 0 0 -0 -0 -0 -0 0 0 0 0 -0 -0 -0 -0 -0 -0 -0 -0 -0 -0 -0 -0 -0 -0 -0 -0 0 0 0 0 0 0 0 0 0 0 1 0 0 0 0 0
0 0 0 0 -0 -0 -0 0 0 0 0 -0 -0 -0 -0 -0 -0 -0 -0 -0 -0 -0 -0 -0 -0 0 0 0 0 0 0 0 0 0 0 0 0 0 0 0 0 0 0
0 0 0 1 -0 -0 0 0 0 -0 0 -0 -0 -0 -0 -0 -0 -0 -0 -0 -0 -0 -0 -0 0 0 0 0 0 0 0 0 0 0 0 0 0 0 0 0 0 0 1
1 0 1 0 0 -0 0 0 0 0 0 0 -0 -0 -0 -0 -0 -0 -0 -0 -0 -0 -0 0 0 0 0 0 0 0 0 0 0 0 0 0 0 0 1 1 1 1 1
1 1 0 0 0 0 0 0 0 0 0 0 0 0 -0 -0 0 0 0 -0 -0 0 0 0 0 0 0 0 0 0 0 0 0 0 0 0 0 1 1 1 1 1 1
1 1 1 1 0 0 0 0 0 0 0 0 0 0 0 0 -0 -0 -0 -0 -0 0 0 0 0 0 0 0 0 0 0 0 0 0 0 0 1 2 1 1 1 1 1
1 1 1 1 1 1 1 0 0 0 0 0 0 0 0 0 -0 -0 -0 -0 -0 0 0 0 0 0 0 0 -0 -0 0 -0 0 0 0 1 1 1 1 1 1 1 0
1 1 1 1 1 1 1 1 0 0 0 0 0 0 0 0 0 -0 -0 -0 0 0 0 0 0 0 0 -0 -0 -0 -0 0 0 0 0 1 1 0 0 0 0 0 0
1 1 1 1 1 1 1 1 0 0 0 0 0 0 0 0 -0 0 0 0 0 0 0 0 0 0 0 0 0 0 0 0 0 0 0 1 0 0 0 0 0 0 0
1 1 1 1 1 1 1 1 1 0 0 0 0 0 -0 -0 -0 0 0 0 0 0 -0 -0 -0 0 0 0 0 0 0 0 0 0 0 0 0 0 0 0 0 0 0
1 1 0 1 1 1 1 1 1 0 0 0 0 0 -0 -0 0 0 0 0 0 -0 -0 0 0 0 0 0 0 0 0 0 0 0 0 0 0 0 0 0 0 0 0
2 1 0 0 0 1 0 0 0 0 0 0 0 -0 -0 -0 0 0 0 0 -0 -0 -0 0 0 0 -0 -0 0 1 1 0 0 0 0 0 0 0 0 0 0 0 0
3 2 1 0 0 0 0 0 0 0 0 0 0 -0 -0 0 0 0 0 0 0 0 0 0 0 0 0 0 1 0 0 0 0 0 0 0 0 0 0 0 0 0 0
5 3 1 0 1 0 0 0 0 0 0 0 0 0 0 0 0 0 0 0 0 0 0 0 0 0 1 0 0 0 0 0 0 0 0 0 0 0 0 -0 -0 0 0
5 4 3 4 0 0 0 0 0 0 0 0 0 0 0 0 0 0 0 0 0 0 0 0 0 0 0 0 0 0 0 0 0 0 0 0 0 0 0 0 0 0 0
5 2 2 1 2 1 0 0 0 0 0 0 0 0 0 0 0 0 0 0 0 0 1 0 0 0 0 0 0 0 0 0 0 0 0 0 0 0 0 0 0 0 0
2 2 1 1 5 4 2 1 1 1 0 0 0 0 0 0 0 0 0 0 0 0 1 0 0 0 0 0 0 0 0 0 0 0 0 0 0 0 0 0 0 0 0
3 2 0 1 0 2 2 2 2 1 0 1 0 0 0 0 0 0 0 0 1 1 0 0 0 0 0 0 0 0 0 0 0 0 0 0 0 0 0 0 0 0 0
2 1 1 1 0 1 -1 1 3 1 1 1 1 0 0 0 0 0 0 0 0 0 0 0 0 0 0 0 0 0 0 0 0 0 0 0 0 0 0 0 0 0 0
1 0 0 0 1 1 1 2 3 2 2 2 1 1 0 0 1 0 0 0 0 0 0 0 0 0 0 0 0 0 0 0 0 0 0 0 0 0 0 0 0 0 0
4 1 1 0 0 3 4 4 1 1 2 2 1 1 1 0 0 0 0 0 0 0 0 0 0 0 0 0 -0 -0 0 0 0 0 0 0 0 0 0 0 0 0 0
8 6 3 0 0 1 1 0 1 1 3 3 2 0 0 0 0 0 0 0 0 0 0 0 0 0 0 0 0 0 0 0 0 0 0 0 0 0 0 0 0 0 0
12 11 8 3 1 1 0 -0 0 1 2 3 1 1 0 0 0 0 0 0 0 0 0 0 -0 -0 0 0 0 0 0 0 0 0 0 0 0 0 0 0 0 0 0
Wind_Speed_500mb
42 57 58 55 54 49 45 42 38 33 28 29 35 38 40 41 40 41 43 45 46 42 36 30 28 26 24 21 18 17 18 19 21 20 24 25 27 30 34 35 36 34 31
39 62 59 54 54 50 45 42 38 31 28 29 34 39 42 42 41 43 45 47 45 37 31 29 28 26 22 20 19 18 18 20 22 23 19 16 16 26 32 35 35 35 32
42 69 62 55 52 52 47 43 40 32 28 30 33 39 43 42 40 42 45 45 40 34 29 26 23 21 18 17 17 16 17 20 24 21 21 18 16 20 27 34 36 37 34
43 70 66 56 52 50 49 42 41 36 29 30 33 37 41 40 39 41 44 41 36 31 26 21 19 16 14 13 13 13 15 19 21 23 25 18 16 6 28 34 42 38 35
55 72 66 58 54 52 48 45 43 38 32 31 33 37 38 39 40 39 39 36 31 26 19 14 12 12 12 10 10 9 11 14 19 19 16 14 8 22 25 36 41 34 34
70 74 67 60 56 54 50 47 44 41 35 32 34 36 38 39 38 35 33 30 26 21 15 12 10 9 8 7 6 6 7 10 13 13 22 13 10 15 30 38 42 34 33
72 72 65 60 55 55 52 49 45 43 37 33 33 36 38 38 36 31 28 26 23 19 15 11 8 7 5 3 2 5 7 9 8 9 19 10 5 26 30 33 39 36 35
70 72 65 60 56 55 52 51 48 45 40 35 34 35 37 37 34 29 26 24 21 17 14 10 8 6 3 2 5 9 12 16 12 9 9 13 13 19 26 37 40 37 36
64 72 69 63 58 55 52 51 50 48 43 37 34 35 37 36 32 27 25 22 19 16 13 10 8 6 3 6 12 14 11 17 21 10 5 8 9 19 30 39 39 37 35
44 70 70 67 64 63 58 53 53 51 47 41 38 38 40 36 32 28 24 19 15 13 12 10 9 7 6 16 22 16 16 14 9 9 6 5 13 24 35 39 39 37 35
41 55 72 70 68 65 62 59 56 52 48 45 42 42 42 38 33 28 23 18 15 12 11 11 10 9 13 17 18 18 14 14 13 10 5 5 17 29 38 39 39 39 37
57 53 74 74 74 70 67 66 62 58 53 48 45 46 44 38 31 26 20 18 15 13 14 13 14 15 16 13 8 9 11 14 6 7 5 7 22 35 41 41 39 38 38
61 53 66 76 74 72 69 68 64 58 53 49 47 47 45 37 32 28 22 16 17 17 17 17 15 13 12 7 10 10 6 8 6 8 9 18 28 35 38 39 41 41 46
70 62 55 82 75 70 66 64 60 57 54 52 50 48 45 37 19 23 17 16 18 18 18 15 15 13 3 7 3 3 6 10 8 7 12 22 30 34 34 39 39 44 50
79 72 63 87 75 71 65 66 58 55 53 50 52 52 44 40 26 21 25 18 19 17 15 6 11 13 1 2 10 14 17 7 11 16 14 20 26 34 37 40 44 49 52
74 77 72 85 83 71 64 66 63 58 55 50 54 57 48 38 31 25 19 20 18 13 8 2 9 15 9 13 17 27 17 21 13 14 22 21 22 34 36 40 45 57 50
70 71 62 71 74 69 53 60 57 56 55 51 56 60 49 45 39 38 30 34 25 19 13 14 17 27 23 21 27 20 18 18 11 11 18 14 26 28 35 37 52 52 44
64 69 68 65 66 54 43 51 55 52 50 45 51 59 51 51 41 39 39 40 33 35 30 22 23 24 22 24 23 21 16 5 3 5 23 25 20 24 33 43 53 43 39
58 74 96 80 60 55 40 43 44 46 47 39 40 53 53 51 41 37 31 27 32 26 26 30 26 22 28 30 27 20 14 4 9 9 15 16 19 25 32 42 41 36 36
41 70 71 79 103 63 47 47 51 51 47 42 33 36 37 49 40 35 33 31 32 31 27 18 23 24 21 20 16 16 7 9 8 15 13 13 18 26 35 38 40 33 39
48 56 65 104 84 80 60 74 68 65 55 55 42 34 24 39 38 35 37 31 38 40 35 27 25 25 21 15 19 18 11 13 11 6 4 8 15 29 30 38 43 32 35
55 58 59 87 117 75 93 90 77 70 58 58 51 44 31 32 33 37 41 33 37 34 35 36 33 28 23 20 10 2 5 6 10 2 3 10 19 24 29 39 38 36 33
68 70 71 87 112 112 100 96 81 66 60 66 58 51 47 46 41 39 43 30 30 33 28 24 21 23 17 17 15 10 8 13 9 10 10 15 20 23 22 32 29 34 35
73 74 73 100 99 105 97 90 88 85 75 69 61 61 57 50 44 36 38 30 30 19 17 10 12 8 5 6 3 9 5 6 7 11 13 23 17 15 13 21 17 40 35
90 89 80 88 94 111 88 94 96 85 77 73 72 65 55 50 40 32 28 22 15 16 8 10 14 9 7 6 2 2 4 3 4 11 19 34 18 19 10 20 29 32 32
93 101 99 95 100 102 111 123 92 95 90 87 78 68 61 51 37 33 28 15 17 23 26 21 23 17 8 5 3 3 4 8 15 12 17 25 14 22 26 26 34 29 31
Wind_Direction_500mb
162 165 161 155 149 148 146 143 139 134 127 127 129 133 136 140 144 142 141 138 136 133 132 131 129 126 127 130 132 123 116 107 97 84 76 72 56 43 31 21 11 14 14
167 167 162 157 152 150 148 146 142 138 131 130 131 133 135 139 140 140 140 138 136 135 134 134 129 124 124 126 124 120 116 107 89 80 72 58 43 32 16 11 7 2 360
174 166 164 160 155 152 151 150 146 143 137 134 136 138 139 141 141 141 142 140 139 137 131 129 129 128 127 120 118 119 113 104 99 85 57 44 33 18 2 359 354 351 346
179 169 166 161 156 155 151 153 149 146 144 139 141 142 141 141 142 145 145 143 143 143 135 119 114 126 123 121 120 118 111 107 100 79 63 44 45 3 358 350 350 349 352
179 171 166 162 159 156 153 157 153 149 150 146 147 146 144 143 145 147 148 149 148 148 146 132 117 113 121 129 125 118 118 108 105 71 45 33 23 339 350 342 345 345 347
178 172 168 163 162 157 157 159 156 153 155 154 151 151 149 147 146 148 151 154 154 154 148 141 134 123 130 135 121 115 105 104 123 54 46 38 314 334 334 337 340 342 347
175 173 171 164 165 160 159 159 161 156 160 158 156 156 156 151 148 148 153 153 153 151 153 154 147 139 155 141 97 67 74 77 86 45 42 4 316 330 325 333 339 339 340
173 173 173 168 166 163 162 159 162 161 164 163 162 163 162 157 155 155 154 153 156 160 167 173 168 175 171 76 52 57 70 74 65 79 40 6 318 316 326 336 336 334 336
170 174 176 171 169 166 165 161 165 167 168 169 169 167 168 165 163 163 156 156 159 167 175 183 191 199 164 85 65 62 65 91 83 88 321 306 299 327 336 337 335 334 335
164 179 180 174 173 170 168 167 169 172 172 174 173 172 173 171 171 169 162 164 169 178 181 187 193 187 135 96 72 71 76 102 33 329 326 240 344 339 339 342 339 335 337
176 182 184 180 177 174 171 171 174 177 177 177 175 175 176 176 174 173 173 173 176 179 177 176 169 153 133 121 82 75 85 53 350 338 228 329 338 340 343 343 341 341 343
179 186 191 187 181 178 177 175 177 180 180 180 179 176 178 178 177 181 181 180 177 169 161 154 146 143 125 120 121 57 85 21 25 124 176 34 342 339 339 336 341 343 343
189 192 196 193 186 183 182 179 178 182 182 180 181 178 175 169 184 179 174 173 176 164 149 142 137 147 156 151 116 92 51 61 137 51 45 359 342 338 329 337 347 345 342
194 199 201 195 189 189 185 185 181 184 185 182 178 174 176 169 176 176 139 178 177 159 159 148 138 161 136 354 294 26 105 88 60 359 322 339 330 321 324 334 336 342 344
200 196 200 191 188 191 189 187 185 187 187 184 174 169 175 176 186 180 149 134 133 138 121 108 162 173 17 150 175 221 223 237 311 301 317 316 308 312 325 336 346 354 353
205 193 190 186 191 193 190 191 187 187 185 181 174 169 169 182 195 194 192 195 174 164 193 188 214 204 260 250 244 211 239 285 273 305 308 290 298 313 325 346 358 355 351
187 176 179 180 188 191 195 193 191 186 183 181 176 176 176 182 193 185 194 195 191 188 192 195 184 191 220 225 244 246 264 271 281 305 310 263 318 328 336 353 352 351 349
197 180 197 182 185 188 192 197 193 187 189 182 179 184 183 188 187 198 204 195 195 197 207 216 230 231 239 244 237 249 280 263 2 281 297 321 329 330 348 344 346 353 357
196 192 176 181 171 186 191 195 194 188 185 182 177 186 187 192 193 199 198 179 186 196 213 222 230 237 237 234 239 257 267 274 283 267 288 304 324 333 344 346 351 357 0
202 192 199 199 199 184 190 201 197 195 186 187 185 178 194 195 196 194 189 187 203 207 210 218 230 225 230 244 272 292 250 283 285 266 294 311 335 330 345 358 359 360 3
219 196 189 176 169 182 194 202 196 196 189 189 190 192 190 194 200 186 194 201 212 213 220 231 244 257 256 263 274 269 261 242 257 288 318 355 346 351 355 2 7 358 3
212 201 207 197 188 193 189 202 200 191 190 192 193 196 197 190 194 196 199 203 206 212 226 240 248 260 277 282 267 338 87 110 91 240 292 350 348 356 357 6 10 7 12
211 200 193 192 188 187 188 195 200 190 192 190 192 188 181 185 196 205 205 204 214 227 233 238 256 275 290 282 266 257 250 218 299 215 314 330 349 3 2 3 9 360 3
202 202 200 192 199 204 196 196 197 191 189 189 185 175 178 186 197 206 216 222 228 226 233 218 241 248 229 308 55 50 46 352 332 289 316 341 0 356 0 342 357 358 352
203 194 201 196 188 182 193 203 197 191 190 181 181 178 180 186 195 200 203 214 201 206 206 159 146 139 130 95 185 351 355 317 313 321 330 345 54 48 1 33 359 352 350
204 193 195 195 192 198 195 196 195 185 185 181 183 184 183 179 179 190 199 178 181 146 143 128 110 116 142 149 106 9 22 24 10 17 349 344 11 56 75 43 37 18 1
Wind_Speed_850mb
42 57 58 55 54 49 45 42 38 33 28 29 35 38 40 41 40 41 43 45 46 42 36 30 28 26 24 21 18 17 18 19 21 20 24 25 27 30 34 35 36 34 31
39 62 59 54 54 50 45 42 38 31 28 29 34 39 42 42 41 43 45 47 45 37 31 29 28 26 22 20 19 18 18 20 22 23 19 16 16 26 32 35 35 35 32
42 69 62 55 52 52 47 43 40 32 28 30 33 39 43 42 40 42 45 45 40 34 29 26 23 21 18 17 17 16 17 20 24 21 21 18 16 20 27 34 36 37 34
43 70 66 56 52 50 49 42 41 36 29 30 33 37 41 40 39 41 44 41 36 31 26 21 19 16 14 13 13 13 15 19 21 23 25 18 16 6 28 34 42 38 35
55 72 66 58 54 52 48 45 43 38 32 31 33 37 38 39 40 39 39 36 31 26 19 14 12 12 12 10 10 9 11 14 19 19 16 14 8 22 25 36 41 34 34
70 74 67 60 56 54 50 47 44 41 35 32 34 36 38 39 38 35 33 30 26 21 15 12 10 9 8 7 6 6 7 10 13 13 22 13 10 15 30 38 42 34 33
72 72 65 60 55 55 52 49 45 43 37 33 33 36 38 38 36 31 28 26 23 19 15 11 8 7 5 3 2 5 7 9 8 9 19 10 5 26 30 33 39 36 35
70 72 65 60 56 55 52 51 48 45 40 35 34 35 37 37 34 29 26 24 21 17 14 10 8 6 3 2 5 9 12 16 12 9 9 13 13 19 26 37 40 37 36
64 72 69 63 58 55 52 51 50 48 43 37 34 35 37 36 32 27 25 22 19 16 13 10 8 6 3 6 12 14 11 17 21 10 5 8 9 19 30 39 39 37 35
44 70 70 67 64 63 58 53 53 51 47 41 38 38 40 36 32 28 24 19 15 13 12 10 9 7 6 16 22 16 16 14 9 9 6 5 13 24 35 39 39 37 35
41 55 72 70 68 65 62 59 56 52 48 45 42 42 42 38 33 28 23 18 15 12 11 11 10 9 13 17 18 18 14 14 13 10 5 5 17 29 38 39 39 39 37
57 53 74 74 74 70 67 66 62 58 53 48 45 46 44 38 31 26 20 18 15 13 14 13 14 15 16 13 8 9 11 14 6 7 5 7 22 35 41 41 39 38 38
61 53 66 76 74 72 69 68 64 58 53 49 47 47 45 37 32 28 22 16 17 17 17 17 15 13 12 7 10 10 6 8 6 8 9 18 28 35 38 39 41 41 46
70 62 55 82 75 70 66 64 60 57 54 52 50 48 45 37 19 23 17 16 18 18 18 15 15 13 3 7 3 3 6 10 8 7 12 22 30 34 34 39 39 44 50
79 72 63 87 75 71 65 66 58 55 53 50 52 52 44 40 26 21 25 18 19 17 15 6 11 13 1 2 10 14 17 7 11 16 14 20 26 34 37 40 44 49 52
74 77 72 85 83 71 64 66 63 58 55 50 54 57 48 38 31 25 19 20 18 13 8 2 9 15 9 13 17 27 17 21 13 14 22 21 22 34 36 40 45 57 50
70 71 62 71 74 69 53 60 57 56 55 51 56 60 49 45 39 38 30 34 25 19 13 14 17 27 23 21 27 20 18 18 11 11 18 14 26 28 35 37 52 52 44
64 69 68 65 66 54 43 51 55 52 50 45 51 59 51 51 41 39 39 40 33 35 30 22 23 24 22 24 23 21 16 5 3 5 23 25 20 24 33 43 53 43 39
58 74 96 80 60 55 40 43 44 46 47 39 40 53 53 51 41 37 31 27 32 26 26 30 26 22 28 30 27 20 14 4 9 9 15 16 19 25 32 42 41 36 36
41 70 71 79 103 63 47 47 51 51 47 42 33 36 37 49 40 35 33 31 32 31 27 18 23 24 21 20 16 16 7 9 8 15 13 13 18 26 35 38 40 33 39
48 56 65 104 84 80 60 74 68 65 55 55 42 34 24 39 38 35 37 31 38 40 35 27 25 25 21 15 19 18 11 13 11 6 4 8 15 29 30 38 43 32 35
55 58 59 87 117 75 93 90 77 70 58 58 51 44 31 32 33 37 41 33 37 34 35 36 33 28 23 20 10 2 5 6 10 2 3 10 19 24 29 39 38 36 33
68 70 71 87 112 112 100 96 81 66 60 66 58 51 47 46 41 39 43 30 30 33 28 24 21 23 17 17 15 10 8 13 9 10 10 15 20 23 22 32 29 34 35
73 74 73 100 99 105 97 90 88 85 75 69 61 61 57 50 44 36 38 30 30 19 17 10 12 8 5 6 3 9 5 6 7 11 13 23 17 15 13 21 17 40 35
90 89 80 88 94 111 88 94 96 85 77 73 72 65 55 50 40 32 28 22 15 16 8 10 14 9 7 6 2 2 4 3 4 11 19 34 18 19 10 20 29 32 32
93 101 99 95 100 102 111 123 92 95 90 87 78 68 61 51 37 33 28 15 17 23 26 21 23 17 8 5 3 3 4 8 15 12 17 25 14 22 26 26 34 29 31
Wind_Direction_850mb
162 165 161 155 149 148 146 143 139 134 127 127 129 133 136 140 144 142 141 138 136 133 132 131 129 126 127 130 132 123 116 107 97 84 76 72 56 43 31 21 11 14 14
167 167 162 157 152 150 148 146 142 138 131 130 131 133 135 139 140 140 140 138 136 135 134 134 129 124 124 126 124 120 116 107 89 80 72 58 43 32 16 11 7 2 360
174 166 164 160 155 152 151 150 146 143 137 134 136 138 139 141 141 141 142 140 139 137 131 129 129 128 127 120 118 119 113 104 99 85 57 44 33 18 2 359 354 351 346
179 169 166 161 156 155 151 153 149 146 144 139 141 142 141 141 142 145 145 143 143 143 135 119 114 126 123 121 120 118 111 107 100 79 63 44 45 3 358 350 350 349 352
179 171 166 162 159 156 153 157 153 149 150 146 147 146 144 143 145 147 148 149 148 148 146 132 117 113 121 129 125 118 118 108 105 71 45 33 23 339 350 342 345 345 347
178 172 168 163 162 157 157 159 156 153 155 154 151 151 149 147 146 148 151 154 154 154 148 141 134 123 130 135 121 115 105 104 123 54 46 38 314 334 334 337 340 342 347
175 173 171 164 165 160 159 159 161 156 160 158 156 156 156 151 148 148 153 153 153 151 153 154 147 139 155 141 97 67 74 77 86 45 42 4 316 330 325 333 339 339 340
173 173 173 168 166 163 162 159 162 161 164 163 162 163 162 157 155 155 154 153 156 160 167 173 168 175 171 76 52 57 70 74 65 79 40 6 318 316 326 336 336 334 336
170 174 176 171 169 166 165 161 165 167 168 169 169 167 168 165 163 163 156 156 159 167 175 183 191 199 164 85 65 62 65 91 83 88 321 306 299 327 336 337 335 334 335
164 179 180 174 173 170 168 167 169 172 172 174 173 172 173 171 171 169 162 164 169 178 181 187 193 187 135 96 72 71 76 102 33 329 326 240 344 339 339 342 339 335 337
176 182 184 180 177 174 171 171 174 177 177 177 175 175 176 176 174 173 173 173 176 179 177 176 169 153 133 121 82 75 85 53 350 338 228 329 338 340 343 343 341 341 343
179 186 191 187 181 178 177 175 177 180 180 180 179 176 178 178 177 181 181 180 177 169 161 154 146 143 125 120 121 57 85 21 25 124 176 34 342 339 339 336 341 343 343
189 192 196 193 186 183 182 179 178 182 182 180 181 178 175 169 184 179 174 173 176 164 149 142 137 147 156 151 116 92 51 61 137 51 45 359 342 338 329 337 347 345 342
194 199 201 195 189 189 185 185 181 184 185 182 178 174 176 169 176 176 139 178 177 159 159 148 138 161 136 354 294 26 105 88 60 359 322 339 330 321 324 334 336 342 344
200 196 200 191 188 191 189 187 185 187 187 184 174 169 175 176 186 180 149 134 133 138 121 108 162 173 17 150 175 221 223 237 311 301 317 316 308 312 325 336 346 354 353
205 193 190 186 191 193 190 191 187 187 185 181 174 169 169 182 195 194 192 195 174 164 193 188 214 204 260 250 244 211 239 285 273 305 308 290 298 313 325 346 358 355 351
187 176 179 180 188 191 195 193 191 186 183 181 176 176 176 182 193 185 194 195 191 188 192 195 184 191 220 225 244 246 264 271 281 305 310 263 318 328 336 353 352 351 349
197 180 197 182 185 188 192 197 193 187 189 182 179 184 183 188 187 198 204 195 195 197 207 216 230 231 239 244 237 249 280 263 2 281 297 321 329 330 348 344 346 353 357
196 192 176 181 171 186 191 195 194 188 185 182 177 186 187 192 193 199 198 179 186 196 213 222 230 237 237 234 239 257 267 274 283 267 288 304 324 333 344 346 351 357 0
202 192 199 199 199 184 190 201 197 195 186 187 185 178 194 195 196 194 189 187 203 207 210 218 230 225 230 244 272 292 250 283 285 266 294 311 335 330 345 358 359 360 3
219 196 189 176 169 182 194 202 196 196 189 189 190 192 190 194 200 186 194 201 212 213 220 231 244 257 256 263 274 269 261 242 257 288 318 355 346 351 355 2 7 358 3
212 201 207 197 188 193 189 202 200 191 190 192 193 196 197 190 194 196 199 203 206 212 226 240 248 260 277 282 267 338 87 110 91 240 292 350 348 356 357 6 10 7 12
211 200 193 192 188 187 188 195 200 190 192 190 192 188 181 185 196 205 205 204 214 227 233 238 256 275 290 282 266 257 250 218 299 215 314 330 349 3 2 3 9 360 3
202 202 200 192 199 204 196 196 197 191 189 189 185 175 178 186 197 206 216 222 228 226 233 218 241 248 229 308 55 50 46 352 332 289 316 341 0 356 0 342 357 358 352
203 194 201 196 188 182 193 203 197 191 190 181 181 178 180 186 195 200 203 214 201 206 206 159 146 139 130 95 185 351 355 317 313 321 330 345 54 48 1 33 359 352 350
204 193 195 195 192 198 195 196 195 185 185 181 183 184 183 179 179 190 199 178 181 146 143 128 110 116 142 149 106 9 22 24 10 17 349 344 11 56 75 43 37 18 1